Home   Weather   Pudong   Past weeks
Flag for China

Past Weather in Pudong, Shanghai Municipality, China — Yesterday and Last 2 Weeks

Now
75 °F

Scattered clouds.


Feels Like: 78 °F
Forecast: 76 / 63 °F
Wind: 8 mph from Northeast

Location: Shanghai Hongqiao Airport

Current Time: Oct 23, 2019 at 3:50:49 pm

Latest Report: Oct 23, 2019 at 3:00 pm


Visibility: N/A

Pressure: 29.98 "Hg

Humidity: 54%

Dew Point: 57 °F

Location of PudongLocation

Past Weather in Pudong — Graph

°F

Pudong Temperature Yesterday

Maximum temperature yesterday: 73 °F (at 11:30 am)
Minimum temperature yesterday: 59 °F (at 4:30 am)
Average temperature yesterday: 67 °F

High & Low Weather Summary for the Past Weeks

 TemperatureHumidityPressure
High84 °F (Oct 10, 2:30 pm)94% (Oct 11, 11:30 pm)30.42 "Hg (Oct 11, 11:30 pm)
Low55 °F (Oct 16, 6:00 am)39% (Oct 19, 2:00 pm)29.89 "Hg (Oct 10, 12:30 pm)
Average69 °F68%30.12 "Hg
* Reported Oct 8 2:00 pm — Oct 23 2:30 pm, Pudong. Weather by CustomWeather, © 2019

Note: Actual official high and low records may vary slightly from our data, if they occured in-between our weather recording intervals... More about our weather records

Advertising

Pudong Weather History for the Previous 24 Hours

Scroll right to see more
 ConditionsComfort  
Time TempWeatherWind HumidityBarometerVisibility
2:30 pm
Wed, Oct 23
73 °FPassing clouds.10 mph61%29.98 "HgN/A
2:00 pm73 °FPassing clouds.8 mph61%29.98 "HgN/A
1:30 pm73 °FPartly sunny.8 mph65%29.98 "HgN/A
1:00 pm73 °FPartly sunny.13 mph61%29.98 "HgN/A
12:30 pm75 °FPartly sunny.8 mph57%29.98 "HgN/A
12:00 pm73 °FPartly sunny.13 mph61%29.98 "HgN/A
11:30 am73 °FScattered clouds.10 mph61%30.01 "HgN/A
11:00 am72 °FScattered clouds.13 mph65%30.01 "HgN/A
10:30 am73 °FScattered clouds.10 mph61%30.01 "HgN/A
10:00 am72 °FScattered clouds.6 mph65%30.01 "HgN/A
9:30 am70 °FPassing clouds.6 mph73%30.01 "HgN/A
9:00 am70 °FSunny.6 mph73%30.04 "Hg10 mi
8:30 am68 °FSunny.6 mph78%30.04 "Hg10 mi
8:00 am68 °FSunny.10 mph78%30.01 "Hg10 mi
7:30 am68 °FSunny.8 mph78%30.01 "Hg10 mi
7:00 am66 °FSunny.8 mph83%30.01 "Hg10 mi
6:30 am64 °FSunny.3 mph83%30.01 "Hg10 mi
6:00 am64 °FClear.1 mph83%30.01 "Hg10 mi
5:30 am64 °FClear.3 mph83%29.98 "Hg10 mi
5:00 am64 °FClear.1 mph83%29.98 "Hg10 mi
4:30 am64 °FClear.3 mph83%29.98 "Hg10 mi
4:00 am64 °FClear.3 mph83%29.98 "Hg10 mi
3:30 am64 °FClear.1 mph78%29.98 "Hg10 mi
3:00 am64 °FClear.3 mph78%29.98 "Hg10 mi
2:30 am64 °FClear.6 mph78%30.01 "Hg10 mi
2:00 am66 °FClear.6 mph73%30.01 "Hg10 mi
1:30 am64 °FClear.3 mph78%30.01 "Hg10 mi
1:00 am66 °FPassing clouds.1 mph73%30.01 "HgN/A
12:30 am64 °FPassing clouds.3 mph78%30.01 "HgN/A
12:00 am64 °FPassing clouds.6 mph78%30.01 "HgN/A
11:30 pm
Tue, Oct 22
64 °FClear.3 mph78%30.01 "Hg10 mi
11:00 pm64 °FClear.3 mph73%30.01 "Hg10 mi
10:30 pm64 °FPassing clouds.3 mph73%30.01 "HgN/A
10:00 pm64 °FClear.3 mph73%30.01 "Hg10 mi
9:30 pm66 °FClear.3 mph68%30.01 "Hg10 mi
9:00 pm66 °FPassing clouds.3 mph68%30.01 "HgN/A
8:30 pm68 °FClear.6 mph64%30.01 "Hg10 mi
8:00 pm68 °FClear.6 mph64%30.01 "Hg10 mi
7:30 pm68 °FClear.8 mph64%30.01 "Hg10 mi
7:00 pm68 °FClear.8 mph64%30.01 "Hg10 mi
6:30 pm68 °FPassing clouds.8 mph64%30.01 "HgN/A
6:00 pm70 °FClear.6 mph60%29.98 "Hg10 mi
5:30 pm70 °FClear.6 mph57%29.98 "Hg10 mi
5:00 pm70 °FSunny.8 mph57%29.98 "Hg10 mi
4:30 pm72 °FSunny.10 mph53%29.98 "Hg10 mi
4:00 pm72 °FPassing clouds.8 mph53%29.98 "HgN/A
3:30 pm72 °FPartly sunny.8 mph53%29.98 "HgN/A
3:00 pm72 °FPartly sunny.8 mph53%29.98 "HgN/A
Weather by CustomWeather, © 2019

See weather overview